Weather History for KVYS - September, 2014

Change the Weather History Date:

Tuesday, September 30, 2014

  Actual Average Record
Temperature  
Mean Temperature 59 °F -  
Max Temperature 68 °F 74 °F 88 °F (1971)
Min Temperature 50 °F 46 °F 30 °F (1993)
Degree Days  
Heating Degree Days 6    
Growing Degree Days 9 (Base 50)    
Moisture  
Dew Point 48 °F    
Average Humidity 74    
Maximum Humidity 88    
Minimum Humidity 54    
Precipitation  
Precipitation 0.00 in - - ()
Sea Level Pressure  
Sea Level Pressure 30.02 in    
Wind  
Wind Speed 10 mph (ENE)    
Max Wind Speed 15 mph    
Max Gust Speed 25 mph    
Visibility 10 miles    
Events      
Averages and records for this station are not official NWS values.
T = Trace of Precipitation, MM = Missing Value Source: NWS Daily Summary

Daily Weather History Graph

Daily Weather History Graph

Search for Another Location

Airport or City:

Trip Planner

Search our weather history database for the weather conditions in past years. The results will help you decide how hot, cold, wet, or windy it might be!

Date:

Astronomy

Sep. 30, 2014 Rise Set
Actual Time 6:52 AM CDT 6:40 PM CDT
Civil Twilight 6:24 AM CDT 7:07 PM CDT
Nautical Twilight 5:52 AM CDT 7:39 PM CDT
Astronomical Twilight 5:20 AM CDT 8:12 PM CDT
Moon 1:03 PM CDT (9/30) 11:07 PM CDT (9/30)
Length of Visible Light 12h 42m
Length of Day
11h 47m
Waxing Crescent, 38% of the Moon is Illuminated
Sep 30
Waxing Crescent
Oct 1
First Quarter
Oct 8
Full
Oct 15
Last Quarter
Oct 23
New

Hourly Weather History & Observations

Time (CDT) Temp. Dew Point Humidity Pressure Visibility Wind Dir Wind Speed Gust Speed Precip Events Conditions
12:15 AM 57.6 °F 53.6 °F 87% 30.00 in 10.0 mi ENE 12.7 mph - N/A   Overcast
12:35 AM 57.6 °F 53.6 °F 87% 30.00 in 10.0 mi NE 12.7 mph - N/A   Overcast
12:55 AM 57.6 °F 53.6 °F 87% 30.00 in 10.0 mi ENE 8.1 mph 16.1 mph N/A   Overcast
1:15 AM 57.4 °F 52.9 °F 85% 30.01 in 10.0 mi NE 12.7 mph 17.3 mph N/A   Overcast
1:35 AM 57.4 °F 52.9 °F 85% 30.02 in 10.0 mi ENE 10.4 mph - N/A   Overcast
1:55 AM 56.7 °F 52.0 °F 84% 30.02 in 10.0 mi ENE 15.0 mph - N/A   Overcast
2:15 AM 56.7 °F 51.8 °F 84% 30.02 in 10.0 mi ENE 10.4 mph 17.3 mph N/A   Overcast
2:35 AM 56.5 °F 51.8 °F 84% 30.02 in 10.0 mi ENE 9.2 mph 16.1 mph N/A   Overcast
2:55 AM 56.3 °F 51.8 °F 85% 30.03 in 10.0 mi NE 5.8 mph - N/A   Overcast
3:15 AM 56.3 °F 51.8 °F 85% 30.03 in 10.0 mi NE 10.4 mph - N/A   Overcast
3:35 AM 55.8 °F 51.6 °F 86% 30.03 in 10.0 mi NE 10.4 mph - N/A   Overcast
3:55 AM 55.4 °F 51.6 °F 87% 30.03 in 10.0 mi NE 10.4 mph - N/A   Overcast
4:15 AM 54.9 °F 51.1 °F 87% 30.04 in 10.0 mi NE 9.2 mph - N/A   Overcast
4:35 AM 54.7 °F 51.1 °F 88% 30.04 in 10.0 mi NE 10.4 mph - N/A   Overcast
4:55 AM 54.7 °F 50.4 °F 85% 30.04 in 10.0 mi NE 11.5 mph - N/A   Overcast
5:15 AM 53.6 °F 48.7 °F 84% 30.04 in 10.0 mi NE 9.2 mph - N/A   Overcast
5:35 AM 53.6 °F 48.6 °F 83% 30.04 in 10.0 mi NE 10.4 mph - N/A   Overcast
5:55 AM 53.1 °F 48.2 °F 84% 30.04 in 10.0 mi NE 10.4 mph - N/A   Overcast
6:15 AM 52.9 °F 48.0 °F 84% 30.04 in 10.0 mi NE 8.1 mph - N/A   Overcast
6:35 AM 52.7 °F 47.7 °F 83% 30.04 in 10.0 mi NE 9.2 mph - N/A   Overcast
6:55 AM 52.2 °F 47.3 °F 83% 30.05 in 10.0 mi ENE 9.2 mph - N/A   Overcast
7:15 AM 52.2 °F 47.1 °F 83% 30.05 in 10.0 mi NE 11.5 mph 16.1 mph N/A   Overcast
7:35 AM 52.2 °F 46.4 °F 81% 30.05 in 10.0 mi NE 12.7 mph - N/A   Overcast
7:55 AM 52.2 °F 46.4 °F 81% 30.06 in 10.0 mi ENE 8.1 mph - N/A   Overcast
8:15 AM 52.2 °F 46.0 °F 80% 30.06 in 10.0 mi NE 12.7 mph - N/A   Overcast
8:35 AM 52.2 °F 45.5 °F 78% 30.06 in 10.0 mi NNE 10.4 mph - N/A   Overcast
8:55 AM 52.2 °F 45.5 °F 78% 30.07 in 10.0 mi ENE 10.4 mph - N/A   Overcast
9:15 AM 52.2 °F 44.8 °F 76% 30.07 in 10.0 mi NE 10.4 mph - N/A   Overcast
9:35 AM 51.8 °F 44.2 °F 75% 30.07 in 10.0 mi NE 8.1 mph - N/A   Overcast
9:55 AM 52.2 °F 44.6 °F 75% 30.06 in 10.0 mi NE 11.5 mph - N/A   Overcast
10:15 AM 52.9 °F 45.0 °F 74% 30.06 in 10.0 mi NE 9.2 mph - N/A   Overcast
10:35 AM 53.6 °F 45.3 °F 74% 30.06 in 10.0 mi East 9.2 mph - N/A   Overcast
10:55 AM 54.7 °F 45.9 °F 72% 30.05 in 10.0 mi ENE 10.4 mph - N/A   Overcast
11:15 AM 55.4 °F 45.9 °F 70% 30.05 in 10.0 mi ENE 8.1 mph - N/A   Overcast
11:35 AM 58.1 °F 47.1 °F 67% 30.05 in 10.0 mi ENE 6.9 mph - N/A   Overcast
11:55 AM 59.0 °F 46.8 °F 64% 30.04 in 10.0 mi ENE 9.2 mph - N/A   Scattered Clouds
12:15 PM 59.4 °F 46.8 °F 63% 30.04 in 10.0 mi East 9.2 mph - N/A   Clear
12:35 PM 60.1 °F 46.4 °F 61% 30.03 in 10.0 mi East 9.2 mph 16.1 mph N/A   Clear
12:55 PM 60.8 °F 47.3 °F 61% 30.03 in 10.0 mi ENE 5.8 mph - N/A   Clear
1:15 PM 61.2 °F 46.9 °F 60% 30.02 in 10.0 mi ESE 8.1 mph - N/A   Clear
1:35 PM 62.6 °F 47.3 °F 57% 30.02 in 10.0 mi ENE 8.1 mph - N/A   Clear
1:55 PM 63.7 °F 47.8 °F 56% 30.01 in 10.0 mi SE 3.5 mph - N/A   Clear
2:15 PM 63.9 °F 47.7 °F 56% 30.00 in 10.0 mi ENE 5.8 mph - N/A   Clear
2:35 PM 63.7 °F 47.1 °F 55% 30.00 in 10.0 mi ENE 4.6 mph - N/A   Clear
2:55 PM 63.7 °F 47.3 °F 55% 29.99 in 10.0 mi ENE 6.9 mph - N/A   Clear
3:15 PM 63.9 °F 47.7 °F 56% 29.99 in 10.0 mi ENE 6.9 mph - N/A   Clear
3:35 PM 64.2 °F 47.3 °F 54% 29.99 in 10.0 mi ENE 8.1 mph - N/A   Clear
3:55 PM 64.4 °F 47.3 °F 54% 29.98 in 10.0 mi ENE 8.1 mph - N/A   Clear
4:15 PM 63.1 °F 46.4 °F 54% 29.98 in 10.0 mi East 5.8 mph - N/A   Clear
4:35 PM 63.7 °F 47.8 °F 56% 29.98 in 10.0 mi ENE 8.1 mph - N/A   Clear
4:55 PM 63.1 °F 46.8 °F 55% 29.98 in 10.0 mi East 8.1 mph - N/A   Clear
5:15 PM 63.3 °F 47.5 °F 56% 29.98 in 10.0 mi East 9.2 mph - N/A   Clear
5:35 PM 63.1 °F 46.8 °F 55% 29.99 in 10.0 mi East 10.4 mph - N/A   Clear
5:55 PM 61.7 °F 47.1 °F 59% 29.98 in 10.0 mi East 10.4 mph - N/A   Clear
6:15 PM 60.4 °F 46.8 °F 61% 29.98 in 10.0 mi East 10.4 mph - N/A   Clear
6:35 PM 59.9 °F 47.7 °F 64% 29.98 in 10.0 mi ENE 12.7 mph - N/A   Clear
7:15 PM 57.4 °F 47.3 °F 69% 29.99 in 10.0 mi East 12.7 mph - N/A   Clear
7:35 PM 56.3 °F 46.9 °F 71% 29.99 in 10.0 mi East 11.5 mph 17.3 mph N/A   Clear
7:55 PM 55.4 °F 46.8 °F 73% 30.01 in 10.0 mi East 6.9 mph - N/A   Clear
8:15 PM 54.7 °F 46.6 °F 74% 30.01 in 10.0 mi East 8.1 mph - N/A   Clear
8:35 PM 54.7 °F 47.3 °F 76% 30.02 in 10.0 mi East 8.1 mph - N/A   Clear
8:55 PM 53.8 °F 46.9 °F 78% 30.01 in 10.0 mi East 9.2 mph - N/A   Mostly Cloudy
9:15 PM 68.0 °F 56.8 °F 67% 29.95 in 10.0 mi WNW 3.5 mph - N/A   Clear
9:35 PM 67.3 °F 57.0 °F 70% 29.95 in 10.0 mi NW 4.6 mph - N/A   Scattered Clouds
9:55 PM 51.8 °F 46.4 °F 82% 30.01 in 10.0 mi East 9.2 mph - N/A   Clear
10:15 PM 52.2 °F 46.8 °F 82% 30.01 in 10.0 mi East 9.2 mph - N/A   Clear
10:55 PM 51.1 °F 46.4 °F 84% 30.01 in 10.0 mi East 8.1 mph - N/A   Clear
11:15 PM 50.9 °F 46.4 °F 85% 30.01 in 10.0 mi East 8.1 mph - N/A   Clear
11:35 PM 50.9 °F 46.6 °F 85% 30.01 in 10.0 mi East 4.6 mph - N/A   Clear
11:55 PM 57.6 °F 53.6 °F 87% 30.00 in 7.0 mi NE 12.7 mph 25.3 mph N/A   Overcast